Precipitable_Water
1.04 1.27 1.43 1.49 1.59 1.72 1.80 1.85 1.89 1.95 1.93 1.86 1.75 1.50 1.25 1.06 1.00 1.05 1.13 1.12 1.17 1.19 1.22 1.25 1.15 1.17 1.15 1.07 1.01 0.97 0.90 0.84 0.82 0.82 0.82 0.85 0.99 1.07 1.20 1.14 1.13 0.86 0.79
1.07 1.27 1.40 1.50 1.54 1.62 1.70 1.74 1.80 1.82 1.90 1.93 1.88 1.76 1.51 1.28 1.09 1.12 1.20 1.12 1.22 1.32 1.35 1.47 1.34 1.12 1.11 1.04 0.98 0.93 0.91 0.87 0.82 0.80 0.78 0.90 0.99 1.11 1.16 1.10 1.26 1.00 0.74
1.17 1.29 1.35 1.48 1.56 1.62 1.68 1.70 1.72 1.74 1.75 1.82 1.87 1.85 1.72 1.57 1.40 1.31 1.24 1.28 1.16 1.29 1.45 1.49 1.48 1.34 1.13 1.05 1.04 1.00 0.92 0.88 0.84 0.79 0.74 0.90 1.07 1.20 1.12 0.98 1.08 1.19 0.89
1.14 1.25 1.34 1.44 1.50 1.55 1.61 1.68 1.70 1.72 1.72 1.72 1.78 1.82 1.81 1.64 1.59 1.54 1.45 1.27 1.14 1.19 1.41 1.46 1.45 1.48 1.29 1.15 1.11 1.01 0.95 0.90 0.80 0.73 0.73 0.87 1.02 1.07 0.98 0.91 1.03 1.27 1.19
1.12 1.24 1.32 1.39 1.45 1.49 1.53 1.61 1.67 1.69 1.70 1.68 1.67 1.73 1.80 1.74 1.62 1.61 1.59 1.47 1.20 1.08 1.35 1.44 1.47 1.57 1.50 1.35 1.14 1.02 0.94 0.88 0.81 0.72 0.64 0.76 0.84 1.10 0.98 0.88 0.94 1.14 1.25
1.03 1.18 1.30 1.37 1.43 1.47 1.51 1.52 1.56 1.63 1.67 1.68 1.66 1.64 1.70 1.77 1.70 1.61 1.60 1.57 1.42 1.30 1.24 1.34 1.37 1.39 1.34 1.36 1.24 1.11 0.97 0.91 0.85 0.79 0.70 0.74 0.77 1.03 0.99 0.84 0.85 1.11 1.24
0.95 1.09 1.22 1.29 1.41 1.43 1.45 1.50 1.52 1.52 1.54 1.59 1.61 1.61 1.63 1.69 1.73 1.72 1.67 1.57 1.54 1.50 1.56 1.36 1.36 1.26 1.21 1.27 1.25 1.17 1.03 0.94 0.86 0.80 0.76 0.81 0.88 0.88 0.92 0.81 0.79 1.01 1.20
0.80 0.86 0.97 1.17 1.29 1.38 1.39 1.44 1.48 1.46 1.49 1.52 1.51 1.53 1.58 1.62 1.66 1.71 1.70 1.65 1.60 1.56 1.64 1.67 1.53 1.39 1.30 1.25 1.29 1.24 1.16 0.97 0.86 0.81 0.79 0.77 0.70 0.82 0.90 0.80 0.75 0.91 1.14
0.71 0.73 0.74 0.81 0.94 1.15 1.29 1.36 1.41 1.44 1.41 1.45 1.47 1.47 1.49 1.53 1.57 1.61 1.64 1.65 1.63 1.63 1.63 1.73 1.73 1.66 1.48 1.38 1.30 1.25 1.19 1.06 0.92 0.85 0.84 0.82 0.70 0.81 0.93 0.91 0.84 0.87 1.01
0.55 0.63 0.65 0.67 0.73 0.74 0.90 1.11 1.25 1.31 1.34 1.34 1.39 1.42 1.43 1.47 1.49 1.52 1.55 1.59 1.60 1.58 1.60 1.73 1.78 1.75 1.70 1.53 1.43 1.34 1.24 1.18 1.08 0.98 0.86 0.85 0.75 0.79 1.03 0.94 0.94 1.10 1.15
0.49 0.51 0.54 0.58 0.62 0.67 0.75 0.88 0.95 1.04 1.10 1.14 1.20 1.29 1.34 1.38 1.44 1.45 1.48 1.54 1.55 1.52 1.51 1.60 1.71 1.70 1.67 1.68 1.53 1.48 1.40 1.23 1.12 1.13 1.02 0.91 0.84 0.73 0.93 1.00 0.89 1.09 1.21
0.41 0.44 0.49 0.51 0.54 0.60 0.70 0.79 0.83 0.87 0.92 0.97 1.04 1.13 1.19 1.23 1.27 1.30 1.33 1.41 1.49 1.50 1.49 1.50 1.53 1.60 1.62 1.61 1.63 1.58 1.47 1.36 1.22 1.19 1.16 1.04 0.87 0.74 0.85 0.94 0.82 0.97 1.11
0.40 0.40 0.41 0.43 0.47 0.52 0.60 0.65 0.69 0.71 0.72 0.77 0.85 0.93 1.01 1.06 1.08 1.13 1.20 1.29 1.37 1.44 1.47 1.46 1.43 1.45 1.48 1.51 1.60 1.61 1.53 1.41 1.29 1.30 1.24 1.18 1.04 0.80 0.84 0.94 0.89 0.86 1.02
0.33 0.32 0.33 0.35 0.36 0.37 0.40 0.45 0.50 0.52 0.54 0.55 0.57 0.61 0.64 0.70 0.76 0.81 0.90 1.01 1.11 1.17 1.21 1.29 1.24 1.23 1.31 1.44 1.51 1.58 1.52 1.50 1.37 1.36 1.35 1.27 1.23 1.05 0.92 0.87 0.95 0.90 0.95
0.28 0.27 0.26 0.26 0.25 0.25 0.24 0.25 0.26 0.28 0.30 0.33 0.33 0.33 0.33 0.34 0.38 0.46 0.56 0.66 0.74 0.86 0.92 0.97 0.99 1.01 1.07 1.24 1.40 1.47 1.51 1.53 1.48 1.40 1.42 1.37 1.35 1.23 1.05 0.96 0.91 0.97 0.93
0.25 0.22 0.22 0.20 0.19 0.17 0.16 0.16 0.16 0.17 0.18 0.17 0.17 0.18 0.17 0.17 0.16 0.17 0.21 0.33 0.44 0.57 0.66 0.77 0.82 0.85 0.89 0.98 1.14 1.33 1.44 1.49 1.51 1.44 1.45 1.43 1.41 1.37 1.24 1.14 1.06 0.96 0.98
0.20 0.19 0.18 0.17 0.16 0.14 0.14 0.14 0.14 0.15 0.14 0.13 0.14 0.15 0.15 0.16 0.15 0.15 0.15 0.16 0.23 0.36 0.47 0.57 0.69 0.78 0.81 0.85 0.93 1.09 1.27 1.38 1.42 1.43 1.39 1.44 1.42 1.43 1.35 1.28 1.22 1.16 1.01
0.18 0.16 0.17 0.15 0.13 0.12 0.11 0.11 0.13 0.13 0.13 0.13 0.14 0.15 0.16 0.17 0.18 0.17 0.17 0.17 0.18 0.20 0.27 0.35 0.47 0.58 0.71 0.78 0.79 0.91 1.02 1.15 1.23 1.31 1.34 1.37 1.38 1.38 1.37 1.37 1.26 1.30 1.18
0.20 0.18 0.17 0.16 0.14 0.13 0.12 0.12 0.11 0.11 0.11 0.13 0.15 0.16 0.18 0.19 0.19 0.18 0.19 0.18 0.18 0.17 0.17 0.19 0.26 0.39 0.52 0.62 0.72 0.77 0.84 0.96 1.06 1.13 1.15 1.22 1.32 1.35 1.35 1.38 1.37 1.34 1.26
0.20 0.19 0.18 0.17 0.15 0.14 0.13 0.12 0.12 0.12 0.13 0.14 0.16 0.18 0.18 0.19 0.19 0.19 0.20 0.19 0.19 0.18 0.16 0.16 0.15 0.19 0.26 0.40 0.50 0.62 0.69 0.75 0.93 0.96 1.08 1.14 1.18 1.25 1.32 1.34 1.40 1.41 1.33
0.20 0.19 0.19 0.17 0.16 0.15 0.13 0.12 0.12 0.11 0.13 0.13 0.16 0.16 0.18 0.18 0.19 0.20 0.20 0.21 0.21 0.19 0.18 0.18 0.17 0.15 0.14 0.22 0.31 0.44 0.62 0.76 0.81 0.87 1.01 1.06 1.10 1.17 1.22 1.29 1.32 1.38 1.35
0.21 0.20 0.20 0.19 0.18 0.17 0.16 0.15 0.14 0.13 0.14 0.15 0.16 0.16 0.16 0.17 0.19 0.21 0.21 0.22 0.22 0.21 0.20 0.20 0.19 0.16 0.16 0.18 0.16 0.24 0.29 0.55 0.83 0.91 0.95 0.97 0.97 1.12 1.08 1.18 1.22 1.28 1.26
0.24 0.23 0.23 0.21 0.20 0.20 0.19 0.18 0.16 0.16 0.15 0.15 0.15 0.15 0.16 0.17 0.19 0.21 0.22 0.23 0.23 0.23 0.21 0.21 0.21 0.20 0.17 0.19 0.20 0.17 0.22 0.29 0.44 0.78 0.92 0.99 1.00 0.98 0.99 1.09 1.15 1.18 1.27
0.25 0.26 0.27 0.26 0.23 0.23 0.22 0.20 0.17 0.16 0.15 0.16 0.16 0.17 0.16 0.17 0.19 0.21 0.23 0.24 0.24 0.24 0.24 0.24 0.24 0.23 0.21 0.17 0.18 0.22 0.22 0.28 0.33 0.37 0.65 0.82 0.94 0.97 0.99 1.00 1.00 1.12 1.18
0.24 0.24 0.25 0.24 0.24 0.25 0.25 0.24 0.22 0.19 0.19 0.18 0.18 0.17 0.17 0.18 0.20 0.22 0.24 0.25 0.25 0.26 0.26 0.25 0.24 0.24 0.23 0.21 0.20 0.19 0.18 0.18 0.24 0.29 0.33 0.55 0.69 0.89 0.95 1.02 1.04 1.03 1.08
0.25 0.24 0.24 0.22 0.22 0.23 0.23 0.23 0.23 0.21 0.20 0.19 0.19 0.18 0.18 0.19 0.20 0.22 0.25 0.26 0.26 0.27 0.26 0.26 0.26 0.25 0.24 0.23 0.23 0.22 0.20 0.17 0.18 0.19 0.23 0.30 0.45 0.64 0.76 0.88 0.97 1.03 1.06
Wind_Speed
18 17 15 14 12 11 11 10 9 8 8 7 6 6 6 6 6 5 5 4 4 4 5 5 5 4 5 5 6 8 9 10 10 12 12 13 13 14 15 15 17 18 17
19 18 17 15 14 13 12 11 11 9 8 7 7 6 5 5 5 5 4 4 3 3 4 4 4 4 4 4 5 6 8 9 10 10 12 12 13 13 14 15 16 17 17
19 19 18 17 16 15 14 13 12 11 9 8 7 6 6 5 5 5 5 4 3 3 4 5 4 3 3 4 4 5 6 8 9 9 10 11 12 12 13 14 15 16 17
19 19 19 18 17 16 15 15 14 13 11 10 9 7 6 6 6 5 5 5 4 4 5 4 4 3 3 3 2 4 4 6 8 8 8 10 11 11 12 12 14 15 15
19 18 19 19 18 17 16 16 15 14 14 12 11 9 8 7 7 7 6 5 5 5 6 5 4 4 3 2 1 2 3 5 6 8 7 8 9 10 11 11 12 13 14
19 19 19 20 19 18 17 17 17 16 15 14 13 12 10 9 9 8 7 7 7 6 7 7 6 5 4 3 2 1 1 2 4 6 7 7 7 9 9 9 10 11 12
22 20 18 20 21 21 20 19 19 18 17 16 15 14 13 12 11 10 10 9 7 8 8 8 8 7 6 5 4 2 2 2 2 4 5 6 6 6 8 8 8 9 11
22 22 20 20 20 20 20 20 20 19 18 18 17 16 14 14 13 13 12 11 10 9 9 10 9 9 8 7 6 5 3 3 3 2 3 4 5 5 6 6 6 7 9
22 22 21 21 20 20 20 20 20 20 20 19 18 17 16 16 14 14 13 13 12 11 11 11 12 11 10 10 8 8 6 5 4 4 3 4 4 3 4 4 5 5 6
23 23 22 22 22 21 21 21 21 20 20 19 19 19 19 18 17 16 15 14 14 13 12 11 12 13 12 11 11 10 9 8 7 5 5 3 3 2 3 3 3 3 4
23 23 22 22 22 22 21 21 21 21 20 20 19 19 19 19 19 19 18 17 16 16 15 14 13 13 14 14 13 13 12 11 10 8 7 6 5 4 2 2 2 1 1
23 23 22 22 22 23 22 22 22 21 21 21 20 20 20 19 19 19 19 19 19 18 18 17 16 16 16 17 16 15 15 14 12 11 9 8 6 5 4 3 2 2 1
24 23 23 22 22 22 22 22 22 22 22 22 22 21 21 21 21 21 21 21 21 21 21 21 20 19 19 18 19 18 17 16 15 14 13 11 8 7 6 6 4 4 3
24 23 22 22 22 22 22 22 22 22 22 22 22 22 23 23 23 22 22 22 23 23 22 22 22 22 22 21 20 20 19 19 18 16 16 14 12 10 9 8 7 6 6
25 24 23 22 22 22 22 22 22 22 22 23 23 23 23 24 24 24 24 24 23 24 23 23 23 22 22 22 23 22 21 20 20 18 18 18 15 14 12 11 10 9 8
27 26 25 24 23 22 22 22 22 22 22 22 22 22 23 23 23 24 24 24 24 24 23 23 23 22 22 23 23 23 24 22 22 22 21 20 19 17 15 14 13 11 10
29 28 27 26 25 24 24 24 24 23 23 23 23 22 23 23 23 23 24 24 25 25 25 25 25 25 24 24 24 23 23 23 24 24 25 23 21 21 19 17 17 15 13
30 30 29 28 27 26 26 26 25 25 25 25 25 25 24 24 24 24 25 25 25 25 26 27 26 27 27 27 27 27 26 26 25 25 25 26 25 23 22 21 19 19 17
33 32 31 30 29 28 28 27 27 27 27 27 27 27 26 26 26 26 27 27 27 27 28 28 28 29 29 29 29 30 29 29 28 27 27 27 28 28 25 24 23 22 21
34 33 33 32 31 30 30 29 29 28 28 28 28 28 28 28 28 28 28 28 29 29 29 30 30 31 31 31 32 32 32 32 31 30 29 29 29 29 29 27 25 24 24
36 35 34 33 32 31 31 31 31 30 30 30 30 30 30 30 30 30 30 30 30 30 31 31 32 32 32 33 33 34 34 35 35 34 33 31 31 31 31 31 29 28 27
37 36 35 34 33 32 32 32 32 32 32 32 31 31 31 31 31 31 31 31 31 31 32 32 32 33 33 33 33 34 34 35 36 36 36 36 34 34 34 34 33 32 30
37 37 36 35 34 34 33 33 33 33 33 33 33 33 33 33 33 33 33 33 33 33 33 33 34 33 34 34 34 35 34 35 36 36 38 39 38 37 37 37 37 36 35
37 37 36 35 35 34 34 33 33 33 34 34 34 34 34 34 34 34 34 34 34 34 35 35 35 35 36 36 36 36 38 38 36 37 37 37 40 41 40 40 40 40 39
37 36 35 35 34 34 34 33 33 34 34 35 35 35 35 35 35 35 35 35 36 36 36 37 37 37 37 38 38 39 39 40 42 42 40 38 40 38 40 42 42 43 42
35 35 34 34 34 34 33 33 33 33 34 34 34 35 35 35 35 36 36 37 37 37 37 37 38 38 39 39 40 41 41 41 40 42 44 44 44 43 43 44 44 44 45
Wind_Direction
202 202 202 200 198 194 189 183 175 168 171 173 162 151 151 156 161 156 141 131 132 130 134 128 121 112 97 81 66 55 49 47 46 45 44 45 45 47 47 44 42 41 45
203 206 206 205 202 200 197 193 190 182 171 172 178 176 167 165 170 173 169 161 151 151 150 145 132 119 110 90 72 58 50 48 45 43 43 44 46 48 48 47 45 44 49
206 208 209 208 208 208 206 204 200 197 193 188 185 184 188 186 183 185 188 185 182 175 170 165 148 137 122 101 75 59 52 45 38 40 41 42 44 48 47 47 46 47 51
208 210 211 211 211 212 212 210 210 208 206 205 203 203 205 206 205 202 202 205 202 198 188 181 174 163 147 120 75 58 52 42 38 39 41 40 41 43 45 47 48 48 51
207 209 211 212 213 214 214 214 215 215 215 215 215 216 215 214 215 217 215 217 217 213 208 201 197 191 183 168 117 45 45 39 44 38 41 37 37 39 44 47 50 50 52
211 213 214 216 217 217 218 219 219 220 222 221 221 222 221 221 221 220 222 225 227 223 218 214 214 214 217 213 225 280 13 22 33 36 40 34 34 37 40 46 50 52 52
216 217 218 220 221 222 223 224 224 225 226 227 227 226 226 227 226 228 230 232 231 233 227 223 221 227 229 227 235 245 276 301 351 20 25 32 31 30 36 41 49 54 55
218 220 221 220 221 222 225 226 226 228 227 229 229 229 228 229 230 231 233 234 236 237 237 231 229 231 233 232 237 243 266 264 290 322 2 11 13 24 28 33 48 56 56
219 220 221 221 222 224 225 225 226 229 230 230 230 230 230 232 232 233 234 235 236 239 240 241 235 236 239 237 239 247 255 254 272 286 312 342 1 21 15 36 44 54 55
221 223 224 224 226 226 226 227 227 229 229 230 231 232 234 234 234 235 237 237 236 238 240 244 242 241 243 244 243 246 251 251 259 271 281 301 323 327 12 25 33 40 57
223 224 226 227 228 227 228 229 228 229 229 230 232 233 235 236 237 238 239 240 240 241 241 244 246 247 247 247 248 246 249 253 254 263 265 278 293 272 298 327 345 17 52
221 223 226 228 229 229 229 230 230 231 232 233 235 235 235 236 238 240 242 242 243 244 246 246 251 252 254 250 249 249 249 251 253 255 257 263 279 260 259 276 293 270 282
222 224 226 226 227 227 229 231 232 233 234 235 238 239 240 241 243 245 245 245 246 247 249 249 251 254 255 254 250 250 250 250 252 253 252 255 265 257 254 259 266 259 250
222 224 226 226 227 228 229 230 231 232 234 236 238 239 242 243 245 246 248 249 249 250 251 252 254 255 254 255 252 251 252 249 249 252 250 250 256 258 254 254 255 258 247
224 225 226 228 229 230 231 232 233 234 236 238 240 242 244 245 246 248 249 250 251 252 253 254 255 254 253 254 252 251 252 250 248 250 249 248 251 256 254 252 252 253 250
226 227 228 230 231 232 233 233 235 236 237 240 242 243 244 245 247 247 248 249 250 251 252 253 253 254 254 252 253 253 251 251 250 248 249 248 249 252 253 250 249 250 250
228 229 231 232 234 235 237 238 238 238 240 241 243 244 245 246 247 248 249 251 252 253 253 254 254 254 253 255 253 253 254 254 251 250 249 249 249 250 251 252 248 246 249
230 231 232 234 236 237 239 239 240 241 243 244 245 246 248 249 250 251 251 253 254 255 255 255 255 255 254 255 255 255 256 253 255 253 250 249 248 250 250 251 248 245 246
232 232 234 236 238 239 241 241 242 244 245 246 247 249 249 251 252 253 252 254 256 256 257 257 257 257 257 257 256 255 256 255 255 254 252 250 249 249 250 251 250 246 245
232 233 235 237 239 241 242 243 244 245 246 247 248 249 251 252 253 254 255 256 257 257 258 259 258 258 258 258 258 257 256 255 255 255 253 252 250 249 249 250 249 246 245
233 234 236 238 240 242 243 244 245 247 247 248 250 251 252 253 254 255 256 257 258 258 259 260 259 260 259 261 259 257 256 255 254 253 253 253 252 250 250 249 249 247 246
233 234 236 238 240 242 244 246 246 248 248 249 251 252 253 254 255 256 257 257 258 259 259 260 260 260 259 261 259 259 258 256 255 254 253 251 252 251 250 250 249 247 247
232 233 235 238 240 243 245 246 248 249 249 250 251 252 254 255 256 256 257 257 258 259 260 261 261 260 260 259 260 258 259 256 258 256 253 252 252 251 252 250 249 248 246
232 234 236 238 240 243 245 247 248 249 250 251 253 253 255 256 256 256 257 258 259 260 260 260 260 260 260 260 260 258 257 258 258 258 256 255 253 251 251 251 250 248 247
231 233 236 238 241 243 245 247 248 250 251 252 253 254 255 255 256 257 257 258 259 260 260 260 260 260 260 260 259 259 259 258 257 257 257 257 256 253 253 251 250 249 248
231 233 236 239 241 244 246 248 249 250 252 252 253 254 255 255 256 257 258 260 261 260 260 260 260 260 260 260 260 259 258 258 258 257 257 257 257 255 255 253 251 249 248